Retour au catalogue

STARLINK-3969

ActifCommunicationsVLEO
NORAD 52551·PAYLOAD·🇺🇸 United States

Lancé May 13, 2022 depuis Vandenberg Space Force Base

Loading…

Prochains Passages (prochaines 24 heures)

TLE

FraisSource: CelesTrak SupGP

Époque: Sep 14, 2026, 21:22 UTC

1 52551C 22051U   26257.89076389 -.00035079  00000+0 -10647-2 0  2572
2 52551  53.1594 348.0432 0000819  66.4172  66.6994 15.33560277    15

Suivez STARLINK-3969 en temps réel avec AllMySat

Download on the App Store